RH
101 96 95 98 102 103 100 100 101 98 94 97 100 100 101 100 100 101 98 93 93 102 105 100 99 99 101 101 100 101 101 101 100 100 102 102 101 101 103 105 104 104 102 103 103 103 104 107 109 109 107 105 103 101 101 100 100 101 103 102 104 105 103 101 101 103 102 102 102 102 103 103 104 104 103 103 103 104 104 103 102 102 102 102 102 101 101 101
101 101 98 97 99 99 98 100 101 102 101 98 97 99 101 98 97 99 100 97 89 88 98 103 101 98 100 100 98 100 101 99 100 100 101 101 101 103 103 103 105 104 102 101 102 101 102 104 106 108 109 107 106 105 103 102 100 99 100 101 101 102 102 101 99 100 101 101 102 102 102 101 102 103 103 104 105 104 103 104 105 106 105 105 106 105 105 103
99 101 100 99 100 98 92 92 94 97 101 100 97 99 105 101 96 96 97 100 95 86 85 87 86 83 87 92 88 92 99 98 102 105 103 102 100 102 102 101 102 102 102 103 102 101 103 105 106 108 107 105 104 104 104 103 101 99 100 104 103 100 102 102 99 98 100 101 101 101 99 97 96 98 102 105 106 103 100 100 101 104 106 107 107 107 107 106
95 102 100 100 100 100 97 92 87 83 88 96 98 99 103 104 105 105 100 98 99 98 94 90 89 87 91 94 76 69 81 85 91 98 101 103 104 104 104 103 102 104 104 102 100 98 100 104 105 107 107 104 100 100 101 100 99 100 101 103 102 99 101 102 101 99 99 99 100 98 95 93 91 92 96 100 103 102 101 98 97 97 99 100 101 102 104 104
83 100 102 101 100 101 100 99 95 86 82 85 92 97 99 99 102 108 108 104 100 98 100 99 100 99 100 101 82 68 76 84 88 91 92 96 100 104 105 103 102 102 102 101 100 97 95 94 92 93 94 93 91 93 97 98 99 101 102 102 98 94 92 91 92 93 93 95 96 96 96 95 94 93 93 95 98 100 99 98 96 94 92 91 90 91 92 93
62 86 100 102 100 100 100 100 99 97 93 85 83 89 97 102 100 100 103 104 104 103 102 100 99 100 100 101 96 90 93 97 98 97 95 93 94 96 98 98 97 95 95 96 96 97 96 95 93 93 92 90 88 87 89 91 94 95 95 95 91 85 80 76 74 75 76 78 81 84 86 87 89 89 89 90 92 93 93 93 92 91 90 88 86 84 83 83
48 63 85 99 102 101 100 101 100 98 100 96 87 82 86 95 101 103 102 101 100 103 107 103 99 99 100 100 101 101 100 101 101 101 100 99 99 98 99 99 98 98 97 96 96 97 99 100 100 100 99 97 94 91 88 86 85 85 84 81 79 75 71 68 65 63 63 63 64 65 66 68 71 74 75 76 78 79 80 81 81 81 81 80 79 78 78 77
47 51 66 82 96 103 100 100 101 100 101 101 98 92 86 84 87 92 95 97 94 95 101 103 101 100 100 100 101 102 101 101 100 100 100 100 100 98 97 97 95 96 95 95 94 94 94 95 94 92 89 86 83 81 78 76 73 72 72 71 70 69 68 67 64 62 60 59 58 57 56 56 57 58 60 61 62 64 65 66 66 66 66 66 66 66 66 66
48 48 57 66 77 93 102 101 100 100 101 101 101 101 98 93 89 87 87 87 84 82 83 87 92 94 94 95 96 96 97 99 99 99 98 97 95 92 92 91 89 89 88 87 86 84 82 81 81 79 78 78 77 77 77 79 78 77 79 82 83 84 86 87 84 79 75 70 68 65 62 58 56 56 56 55 55 55 55 55 55 55 54 54 53 53 53 53
54 49 53 62 65 72 86 97 98 97 100 101 100 100 101 101 99 97 96 93 91 89 83 81 81 77 76 78 78 79 82 89 92 91 91 93 94 94 96 97 96 94 92 91 89 87 84 82 83 83 84 86 88 90 91 93 92 91 93 94 93 91 91 91 90 88 83 76 70 66 61 58 57 56 55 54 53 52 51 50 49 49 48 46 45 44 44 44
57 56 54 58 60 60 63 74 82 86 94 100 102 100 99 100 101 100 100 100 97 98 98 96 93 86 83 81 77 76 75 80 83 83 86 90 91 93 96 98 100 100 100 99 98 96 94 92 91 91 90 89 89 90 91 91 91 90 90 90 88 84 82 80 80 80 78 75 73 71 68 68 69 70 68 64 61 58 55 53 50 48 46 44 43 41 41 41
55 61 63 62 58 56 56 59 63 66 73 84 95 101 102 100 100 100 101 100 96 97 100 99 100 100 99 97 94 92 88 87 88 89 92 94 92 90 88 88 89 90 91 92 93 93 94 94 95 96 96 95 95 94 93 92 92 92 93 96 94 90 89 88 87 87 86 86 85 83 81 79 77 73 69 65 61 57 54 53 51 50 49 49 48 48 47 46
54 60 67 69 62 56 57 60 61 59 57 60 69 83 95 101 102 102 102 102 98 98 99 99 101 102 103 102 100 101 100 98 98 98 99 99 99 97 95 93 91 90 89 90 91 91 93 95 97 100 101 102 102 101 100 100 100 99 98 99 98 94 92 87 83 81 80 78 74 71 69 68 68 66 65 64 63 62 61 60 59 59 58 57 55 53 50 48
53 59 65 68 66 61 60 61 59 57 53 51 50 54 65 78 90 98 101 104 102 99 98 98 99 100 102 103 100 101 102 101 101 101 101 100 100 100 100 99 100 99 99 99 99 98 99 99 99 100 100 101 102 102 102 103 103 101 97 94 91 90 87 80 75 71 68 68 66 65 66 67 68 69 67 65 63 61 58 55 52 50 47 45 43 41 39 37
52 59 65 66 67 65 64 63 58 52 47 45 44 43 46 51 59 69 77 85 91 95 97 98 98 99 103 104 101 101 101 100 100 101 102 102 102 102 102 101 102 102 101 101 101 101 102 103 104 105 105 105 106 107 105 104 101 99 97 93 89 88 86 81 79 74 69 67 64 61 58 56 55 54 51 48 46 45 43 41 40 38 37 36 35 34 34 33
55 62 66 69 71 69 67 64 56 49 45 43 44 44 46 47 50 53 56 60 65 72 78 82 86 90 95 96 96 95 93 91 91 91 91 90 90 90 92 93 96 98 100 101 101 101 103 104 104 103 101 100 99 97 93 90 87 84 82 79 74 71 68 65 62 59 55 51 48 45 43 43 43 42 41 40 39 38 36 35 34 33 32 30 29 28 26 25
60 65 68 73 73 71 69 63 54 49 49 50 51 50 51 51 53 54 54 54 55 56 58 60 63 66 69 72 73 73 72 71 71 70 69 67 67 67 69 70 73 76 79 81 82 82 81 80 78 76 74 73 70 68 66 63 61 58 56 53 51 48 46 45 44 43 42 41 40 39 38 38 37 36 34 32 30 29 27 26 24 23 22 22 21 21 21 20
64 66 70 73 73 71 68 62 57 55 54 54 55 56 57 56 56 56 55 54 54 53 53 52 53 54 55 56 57 57 58 58 58 58 58 58 58 59 59 59 60 60 60 61 61 60 60 58 58 57 56 55 53 52 50 49 47 46 45 45 44 43 43 43 42 41 39 37 34 32 29 28 26 26 25 24 23 23 22 21 20 20 19 19 19 19 19 19
66 68 72 75 75 71 67 63 60 60 59 59 59 59 59 57 55 55 54 53 54 54 54 54 54 54 55 55 55 55 55 55 56 56 57 57 57 57 58 59 58 58 57 57 57 56 55 54 53 52 51 50 49 48 47 47 47 47 46 44 42 40 37 35 32 30 28 26 24 23 22 21 21 21 21 21 22 23 23 22 22 21 21 21 21 21 21 20
68 72 78 81 77 71 66 63 63 64 63 62 60 57 56 55 53 53 52 52 52 53 53 53 53 54 54 54 55 55 55 56 56 56 57 58 58 59 60 60 60 60 60 60 59 58 56 55 54 52 51 49 47 45 43 42 40 38 35 33 30 28 26 24 23 22 21 20 20 20 20 19 20 20 21 23 24 25 25 25 25 25 25 25 26 25 25 24
72 80 86 84 78 71 66 65 67 68 66 62 58 55 52 51 50 50 49 49 50 51 51 52 52 53 54 54 56 56 57 57 58 59 59 59 60 60 61 61 61 61 60 59 59 57 55 52 49 44 41 37 34 31 29 27 26 25 24 23 23 22 22 21 21 21 21 21 22 22 22 21 21 22 24 25 26 26 27 28 29 30 30 30 31 30 30 31
80 89 88 82 76 71 70 73 73 70 65 60 56 53 51 50 50 49 49 50 51 52 53 55 55 57 57 57 58 58 59 60 61 62 63 64 65 66 66 65 64 63 61 58 54 49 43 38 34 30 28 27 26 25 24 23 23 22 22 22 22 22 22 22 22 22 23 23 24 25 25 25 26 28 30 30 32 33 35 37 37 37 37 37 37 36 37 37
89 88 82 77 74 74 78 79 74 67 62 59 55 53 52 52 52 53 54 55 57 58 59 59 59 59 59 60 61 61 62 63 65 68 69 70 71 71 71 70 68 63 56 48 40 34 30 28 27 26 25 25 25 24 24 24 23 24 24 25 25 25 25 25 25 25 27 28 29 30 30 31 33 34 35 37 39 41 42 42 41 41 40 40 40 40 40 40
85 79 75 73 75 80 82 77 70 65 61 57 55 55 55 57 58 60 61 62 62 62 62 62 62 61 62 65 67 69 71 73 75 76 75 75 75 74 71 65 56 47 39 33 29 27 26 26 25 25 25 25 25 25 25 26 25 26 26 27 27 28 29 30 31 33 35 36 38 37 35 35 36 36 38 41 42 43 43 43 42 42 42 41 41 41 41 41
77 73 73 76 81 82 77 70 65 62 59 58 58 60 62 64 65 65 65 64 63 62 62 63 65 67 70 73 74 77 80 81 80 80 79 77 72 65 55 44 36 31 28 27 26 26 25 25 25 25 26 26 26 26 26 27 28 28 30 31 33 35 38 39 39 39 39 40 41 41 38 36 37 39 41 42 42 42 42 42 42 42 42 42 42 42 42 42
73 73 77 82 82 76 70 65 62 60 61 63 66 67 67 67 67 67 65 64 63 63 63 66 71 75 77 79 80 81 82 81 79 77 72 63 52 42 35 30 28 27 26 26 26 26 27 27 27 27 28 28 28 28 30 32 35 38 40 42 43 43 44 43 42 41 40 40 41 41 39 37 39 41 42 42 42 42 43 43 43 43 43 43 44 44 44 44
76 79 83 83 76 69 64 62 63 66 68 70 70 69 69 70 70 69 66 66 67 67 69 75 78 79 80 81 81 80 79 77 73 64 51 40 33 29 28 27 27 27 27 27 28 28 28 28 28 28 29 30 31 34 38 41 44 46 47 47 46 45 44 43 43 42 41 41 41 41 40 40 40 42 43 43 44 43 44 44 44 44 44 44 44 44 44 45
83 86 84 76 68 63 63 66 70 72 72 71 70 71 74 75 74 70 69 71 73 74 78 81 81 81 81 80 78 76 72 63 52 41 33 29 28 28 28 28 28 28 28 29 29 29 29 29 29 31 33 36 38 42 45 47 48 47 47 46 45 44 44 44 44 44 44 44 43 42 41 40 41 42 44 44 44 44 44 44 44 44 44 43 43 42 42 43
87 84 76 68 63 63 68 73 75 75 73 72 73 76 80 78 73 70 70 74 79 80 81 82 82 81 80 78 75 67 55 42 33 30 29 29 28 28 29 30 30 31 31 31 32 31 32 33 36 39 42 43 44 45 47 47 46 45 44 45 45 45 46 46 47 47 47 47 47 46 46 45 45 46 47 47 47 46 46 46 47 46 45 43 41 40 39 39
85 76 69 66 66 70 75 77 77 76 75 76 79 82 79 73 67 68 73 79 82 81 80 80 79 77 76 72 64 50 38 31 29 29 29 30 31 32 32 33 33 33 33 32 33 33 35 38 42 46 48 48 47 47 46 45 44 44 45 47 49 49 49 49 50 50 50 50 49 49 49 50 51 52 53 52 51 50 49 48 45 42 39 37 35 33 32 32
78 72 70 71 74 77 79 80 79 77 78 82 84 79 71 66 68 76 82 81 80 80 78 77 75 73 68 58 45 35 31 31 30 30 30 31 31 30 30 30 29 29 28 28 31 34 38 43 47 50 50 49 47 44 43 43 44 46 47 50 51 52 51 50 49 49 49 49 49 49 52 54 55 54 55 54 52 49 45 40 36 33 30 28 26 25 24 24
76 76 78 80 81 82 81 80 78 78 83 86 81 73 68 72 78 83 81 77 77 78 75 74 73 67 54 40 32 31 31 31 31 31 31 31 31 31 31 31 32 34 35 37 40 44 48 50 51 50 48 47 45 45 46 47 48 49 50 51 52 51 51 50 49 50 52 53 54 53 53 52 51 50 49 48 44 39 34 30 27 24 22 21 19 18 17 16
80 83 86 87 85 83 81 78 79 86 89 83 76 73 76 82 84 80 76 75 75 73 72 71 64 49 37 31 31 32 31 32 32 32 32 32 33 34 34 35 37 40 43 47 50 53 53 52 50 48 46 46 47 49 51 52 52 52 51 50 49 47 47 46 47 49 50 51 49 47 45 45 45 45 43 39 35 30 27 24 21 19 16 15 13 12 11 10
84 87 89 88 85 82 81 82 89 93 87 80 78 82 85 85 80 75 74 73 72 71 70 60 45 34 31 32 32 31 32 32 32 32 32 33 34 34 35 37 40 44 48 51 52 52 50 48 46 45 45 46 48 50 51 51 50 49 47 45 44 42 42 42 43 42 41 41 42 44 46 47 46 43 37 32 28 25 23 20 17 14 12 10 9 8 8 8
88 90 90 88 85 84 87 94 97 92 85 84 87 88 85 79 75 74 73 72 72 68 57 42 33 32 33 33 33 33 33 33 33 33 33 34 36 38 39 42 47 51 54 54 52 49 47 45 43 43 45 47 49 49 49 48 46 45 43 42 41 41 41 41 39 37 36 40 46 50 50 48 42 37 31 28 25 22 19 15 13 10 9 8 8 8 8 9
90 91 89 88 88 92 97 99 94 88 88 91 91 85 79 75 74 73 71 72 68 55 40 32 32 33 33 32 33 33 33 34 35 35 35 37 38 41 45 49 53 56 56 54 51 47 45 44 45 47 48 49 49 48 47 46 44 43 43 42 42 40 39 39 39 38 40 46 51 51 48 43 37 32 28 25 22 19 15 12 9 8 8 8 8 8 9 9
91 90 89 90 94 100 101 96 90 90 93 92 87 80 76 75 73 71 71 66 53 38 32 32 33 32 32 32 31 31 33 34 35 35 37 39 42 46 50 53 55 55 53 50 47 45 45 47 49 49 49 48 47 46 45 44 43 42 41 40 38 36 34 36 40 46 52 56 55 50 44 38 33 29 27 24 21 17 13 10 8 8 8 8 9 9 10 10
90 89 91 96 102 104 101 95 94 96 94 88 81 77 75 73 71 71 65 52 37 32 33 33 33 33 32 32 33 33 34 34 36 37 40 43 48 51 53 54 53 50 48 46 46 46 47 48 49 48 47 46 45 44 43 42 41 39 37 35 34 35 35 37 44 54 61 60 54 47 41 36 32 30 27 24 21 16 12 10 8 8 8 9 9 9 10 11
91 94 99 105 107 103 100 99 98 95 89 82 78 76 73 71 70 65 51 37 32 33 33 33 33 33 33 34 35 36 36 37 39 41 46 50 52 53 54 52 49 47 45 45 47 48 48 48 47 46 45 44 43 42 40 38 35 33 32 34 36 39 42 47 55 62 62 57 50 45 41 38 35 32 29 26 22 18 14 11 9 8 9 9 9 10 10 11
100 104 107 107 103 101 100 98 94 89 83 78 76 72 71 70 65 51 37 32 32 33 33 33 33 34 35 36 37 37 38 40 43 48 51 53 54 54 52 49 47 46 46 47 48 48 48 47 47 45 44 42 39 37 35 34 35 37 39 42 44 46 50 55 60 62 59 53 49 46 44 41 39 37 34 31 26 21 17 14 11 10 10 10 10 11 11 12
108 108 106 102 101 100 97 93 88 83 79 75 72 70 70 66 52 37 31 32 33 32 32 33 34 35 37 37 37 38 40 44 49 53 53 54 54 52 49 48 48 48 48 47 47 47 47 46 44 42 39 37 35 33 34 35 39 43 46 48 51 55 59 63 63 60 56 52 49 48 46 44 42 41 39 37 34 29 24 19 16 14 13 13 12 12 12 12
106 105 103 101 100 97 93 89 84 79 75 72 70 70 66 53 38 32 32 33 33 33 33 34 36 37 37 38 38 41 46 51 53 54 54 53 51 49 49 49 49 48 47 47 47 46 45 43 40 37 35 34 33 33 36 41 45 48 50 54 58 62 66 67 65 59 55 52 49 48 47 45 44 43 43 43 40 36 32 27 23 20 18 16 15 15 14 14
103 102 101 100 98 93 88 84 79 75 72 70 70 67 55 39 32 33 34 33 33 33 34 36 37 37 37 39 43 48 53 54 54 54 54 51 50 50 50 50 49 48 47 47 46 43 40 38 36 35 34 33 34 38 44 50 54 55 58 60 63 65 66 66 63 60 57 54 52 50 47 46 45 43 43 44 43 40 37 34 30 26 23 20 19 17 16 16
101 100 100 99 94 87 83 79 75 73 71 71 68 57 41 32 32 34 33 32 33 34 36 38 38 38 40 44 49 53 54 54 55 54 52 51 52 52 51 49 48 47 46 43 40 37 35 35 36 37 38 40 45 52 55 56 56 57 59 60 62 65 67 65 64 62 58 55 54 54 51 47 45 44 43 43 43 42 40 38 35 32 28 25 23 21 20 20
99 101 100 94 87 83 79 76 74 73 72 69 59 43 32 32 33 33 32 32 35 37 39 39 39 41 46 51 54 55 56 57 56 53 52 53 53 51 49 48 46 44 41 38 35 34 35 35 36 38 43 48 54 57 57 54 52 52 55 59 62 63 64 65 65 63 61 58 57 57 55 51 46 45 44 43 43 44 44 41 39 37 34 32 29 27 26 25
102 102 95 88 84 80 77 75 74 72 70 60 45 33 32 34 33 32 33 34 38 40 40 40 42 47 52 55 56 59 61 59 56 55 55 54 51 48 47 45 42 39 36 35 35 35 35 36 38 42 48 54 57 57 57 56 54 53 54 58 62 63 64 67 66 64 64 65 62 59 57 55 52 50 49 49 47 47 47 46 43 42 41 39 37 36 34 32
101 95 90 86 82 77 76 75 73 70 62 47 35 32 34 34 32 33 35 38 40 41 41 43 48 53 56 58 61 63 61 57 56 57 55 51 48 46 44 41 37 36 35 35 36 35 35 38 43 48 54 60 62 62 63 63 61 59 57 59 63 68 71 71 69 68 68 68 66 63 59 58 60 59 56 56 54 51 52 54 52 50 49 47 46 45 43 40
95 91 88 84 79 77 77 74 71 65 51 37 32 34 35 33 33 35 38 41 41 41 44 50 56 59 61 65 67 63 59 58 58 56 51 48 46 43 39 36 34 35 36 36 36 36 39 45 51 55 59 63 66 67 69 69 67 66 65 64 64 69 74 76 76 74 70 68 67 66 64 62 64 65 63 61 61 57 57 62 61 58 59 58 56 55 52 50
93 91 86 80 78 79 76 72 67 55 39 33 35 36 34 33 35 38 40 41 41 44 51 57 60 64 69 70 66 61 60 61 58 53 50 47 42 37 34 33 34 36 37 38 38 41 45 51 56 60 62 64 66 69 70 70 71 73 74 72 71 71 71 73 77 77 73 70 69 67 68 67 66 69 69 66 65 62 59 65 68 67 68 69 67 65 63 61
94 89 83 81 80 77 73 69 58 43 34 35 37 35 34 35 37 40 41 41 44 51 57 61 65 71 73 67 62 62 63 60 55 52 47 41 36 32 31 33 35 37 39 39 40 44 51 57 61 63 64 66 68 70 71 73 74 77 80 80 80 78 72 66 70 76 76 73 73 71 71 73 72 73 75 72 70 68 64 68 75 76 76 78 78 75 73 71
91 85 82 83 80 74 71 62 46 35 35 38 37 35 35 36 39 42 41 43 50 56 61 66 72 75 70 63 63 66 64 58 53 48 41 35 31 30 31 33 35 38 39 40 42 47 55 62 66 67 68 71 73 74 77 79 78 79 82 85 84 84 81 72 65 71 76 74 75 75 73 75 76 75 79 81 79 77 72 71 78 81 81 84 84 82 81 78
88 84 83 81 76 72 66 51 38 35 38 38 37 36 36 38 41 42 42 47 55 60 66 75 79 75 67 65 68 68 62 55 50 43 36 32 30 30 32 34 36 39 41 44 46 49 55 64 71 75 75 78 82 82 83 85 87 87 87 89 89 89 92 86 69 65 77 78 77 78 76 77 78 74 79 86 86 86 82 76 80 86 86 87 88 86 85 83
Wind_Speed
33 30 29 30 31 31 32 34 34 33 31 31 31 31 31 32 32 32 32 32 32 32 33 34 34 32 30 35 36 35 37 38 38 38 38 39 39 40 40 41 42 43 44 44 45 45 46 46 47 48 49 50 50 51 52 53 54 54 55 57 61 63 63 62 62 64 65 66 67 68 70 70 71 71 72 73 74 75 76 76 77 78 79 79 80 80 81 82
36 34 32 30 31 32 34 36 37 37 37 36 36 35 34 35 36 35 33 33 34 35 36 37 38 36 35 38 40 39 39 40 40 40 40 41 42 43 44 44 45 46 46 47 47 48 48 49 50 51 52 52 53 54 55 56 56 56 57 59 63 65 65 65 65 66 68 69 70 71 72 72 73 73 74 75 77 78 78 79 79 80 81 81 82 83 84 85
38 37 35 32 32 31 31 34 36 38 40 41 41 39 37 37 37 37 36 35 34 35 37 38 38 38 38 40 41 41 41 41 41 42 43 44 45 46 46 47 47 48 49 50 50 51 51 51 53 54 54 55 56 57 59 60 59 60 60 63 66 66 66 67 67 68 70 71 73 74 75 75 75 75 76 77 78 80 81 82 83 83 84 85 85 86 87 88
39 39 38 35 34 33 31 31 32 33 36 39 40 40 40 39 39 38 38 37 35 34 35 34 35 37 38 41 42 40 40 42 43 45 45 47 48 49 50 50 50 51 52 53 54 54 54 55 56 57 59 60 60 61 62 63 63 63 65 68 70 70 70 70 71 72 73 74 75 76 77 78 78 79 79 80 81 82 83 85 86 86 87 88 89 90 91 91
37 40 40 39 37 35 34 32 31 30 31 33 36 38 39 40 40 40 39 39 39 38 37 35 35 37 40 43 44 42 42 44 46 47 48 48 50 51 52 53 54 54 55 56 57 58 58 59 60 61 63 64 64 64 65 66 66 67 68 71 73 73 73 74 75 76 77 78 79 79 80 81 81 82 82 83 84 85 86 87 88 89 91 92 93 94 94 95
35 38 41 41 40 39 37 36 34 32 31 31 32 35 37 39 41 41 40 41 41 41 41 40 40 41 43 45 47 46 46 47 49 49 50 51 51 52 53 55 56 56 57 58 59 60 61 62 62 63 65 66 66 66 67 68 68 69 71 74 75 76 77 78 79 80 81 82 82 82 83 84 84 85 86 87 88 88 90 91 92 93 94 95 96 97 98 98
33 35 39 42 43 43 41 40 38 36 34 32 32 32 35 37 40 41 42 42 43 43 43 44 44 44 46 48 49 50 50 51 52 53 54 54 54 55 55 56 56 57 58 59 60 60 61 62 63 63 64 65 66 67 67 68 69 70 72 74 76 77 78 79 80 81 82 83 84 85 85 86 86 87 89 89 90 91 92 94 95 95 96 97 99 100 101 102
32 33 36 40 44 45 44 43 42 40 38 36 34 33 34 35 38 40 42 44 45 45 45 46 46 47 49 50 52 53 53 54 54 55 56 56 57 57 57 57 57 57 58 58 59 59 60 61 62 63 64 65 66 66 67 68 69 70 72 74 76 78 78 79 80 81 82 83 84 85 85 86 86 87 89 90 91 93 94 96 97 97 98 99 100 101 103 104
34 32 33 36 41 45 47 46 45 43 42 40 38 37 36 36 37 38 40 42 43 44 45 45 47 48 50 52 53 54 54 54 54 54 54 55 56 56 57 57 57 57 58 59 59 60 61 61 62 63 64 65 67 67 68 70 72 72 74 76 79 80 82 83 84 84 85 86 86 87 87 87 87 88 89 91 93 94 96 97 98 99 100 101 102 103 104 105
34 33 32 34 37 41 45 47 47 46 46 44 43 41 40 39 39 39 40 41 42 42 43 43 46 47 48 50 51 52 53 53 52 52 52 53 55 56 57 58 58 59 60 61 62 63 63 64 65 66 67 68 70 71 72 74 76 77 79 81 83 85 86 87 88 88 89 90 90 91 91 90 90 91 92 94 95 96 97 98 99 101 102 103 104 105 106 107
34 34 32 33 34 36 39 43 46 47 48 48 47 46 44 44 43 43 43 43 43 43 42 42 45 45 46 48 50 51 52 52 53 54 55 57 58 59 60 61 62 63 64 65 66 67 68 69 70 71 72 74 75 76 78 79 81 82 83 84 86 87 88 88 89 90 91 91 92 94 94 92 92 94 95 97 98 99 100 101 102 103 104 105 106 107 108 108
34 34 33 33 32 33 34 36 40 43 46 49 50 50 49 48 47 47 47 47 47 47 46 46 46 46 47 48 50 52 53 54 56 57 58 59 60 62 63 64 65 66 67 68 69 70 71 72 73 75 76 77 79 80 81 82 83 84 85 86 87 89 89 90 91 92 93 94 96 97 97 97 98 99 100 101 102 103 104 104 105 106 107 108 109 109 110 111
34 34 33 33 32 30 30 31 34 37 40 44 47 50 52 52 52 52 51 51 51 51 52 51 51 51 50 51 51 53 54 55 57 58 59 60 61 63 64 66 67 68 69 70 71 72 73 74 75 76 77 78 80 81 82 84 85 86 87 88 90 92 93 94 95 96 96 98 99 100 100 99 100 102 102 103 105 106 107 108 109 109 110 111 111 112 112 113
33 33 33 32 32 30 29 29 30 32 34 37 41 45 49 52 54 56 56 57 57 57 57 57 57 57 56 56 55 56 57 58 59 60 61 63 64 65 66 67 69 69 70 71 72 73 74 75 76 77 78 79 81 82 84 85 87 88 89 90 92 93 95 96 98 98 98 99 100 101 101 101 103 104 105 106 107 108 109 109 109 110 110 110 111 111 111 111
32 32 32 32 31 30 28 28 29 30 31 32 35 38 41 45 48 52 54 56 58 59 60 61 61 62 62 62 61 62 62 62 62 63 64 66 67 68 68 69 70 71 72 72 73 74 75 76 77 78 79 81 82 84 85 87 88 90 91 92 94 95 96 98 100 100 100 101 101 102 101 100 101 103 103 104 104 105 105 106 106 106 106 107 107 107 107 107
31 31 31 30 30 29 28 28 29 29 29 29 30 32 34 36 39 42 45 48 51 54 56 57 59 61 63 64 65 65 66 66 66 66 67 67 67 68 69 70 71 72 73 74 75 76 77 78 79 80 82 83 84 85 86 88 89 90 91 93 94 95 96 97 98 99 99 98 98 98 97 96 96 98 99 99 100 101 101 101 102 102 102 102 101 101 102 102
30 30 29 29 28 28 28 28 28 27 27 27 27 28 29 31 33 35 37 39 42 44 46 48 51 53 55 57 59 60 61 62 62 63 63 63 64 64 66 67 68 69 70 71 73 74 75 76 77 78 80 81 82 83 84 85 87 88 89 90 91 92 92 93 93 93 93 93 92 92 91 90 91 92 92 92 93 94 94 95 95 95 95 95 95 95 96 96
29 29 28 28 27 27 27 28 27 26 25 25 25 26 27 28 29 31 33 34 36 38 40 41 43 45 47 49 51 52 53 55 56 57 58 59 60 61 62 63 64 65 66 67 68 69 71 72 73 74 76 77 79 80 81 82 84 85 86 87 88 88 88 88 88 88 88 87 86 85 84 83 83 83 83 84 85 86 87 88 89 89 89 90 90 91 91 92
28 28 27 27 26 26 26 26 25 24 24 24 25 25 26 27 29 30 31 33 34 35 37 38 40 41 43 45 46 47 49 50 52 53 54 55 55 56 57 58 60 61 62 64 65 67 68 70 71 73 74 75 77 79 80 80 81 82 83 83 84 84 83 83 82 81 80 79 78 77 77 76 76 76 76 77 78 79 81 83 84 84 85 86 86 87 88 89
27 26 26 26 26 26 25 24 23 23 23 24 25 25 26 27 28 29 30 31 32 33 35 36 37 38 39 40 42 43 44 45 46 47 48 49 50 51 53 55 56 58 60 62 64 66 67 69 71 72 73 75 75 76 76 76 75 76 76 76 75 75 75 75 74 74 74 73 72 72 72 71 71 71 71 72 73 75 77 79 80 81 82 83 84 85 86 87
26 25 25 26 26 25 24 23 22 23 23 24 25 26 26 27 27 28 28 29 29 30 31 32 33 33 34 35 37 38 39 40 42 43 45 47 48 50 52 54 56 58 60 62 64 66 67 68 69 70 69 69 69 69 68 68 67 67 67 68 68 68 69 69 69 69 69 68 68 68 69 68 68 68 68 70 72 74 75 77 78 79 80 82 83 85 85 86
24 24 25 25 24 24 22 22 22 23 23 24 25 25 26 26 25 25 25 25 26 26 27 28 29 31 32 34 35 37 38 40 42 44 46 48 50 52 53 55 57 59 61 62 64 64 65 64 64 64 63 63 63 63 63 63 63 63 63 63 64 64 64 65 65 64 65 66 66 67 68 66 66 67 68 70 71 73 75 76 78 79 80 82 83 84 85 86
23 23 24 23 22 21 21 21 22 23 23 24 24 23 23 23 23 23 23 23 24 25 27 28 30 31 33 35 37 38 40 42 44 46 48 50 52 54 56 57 59 61 61 62 61 60 60 59 59 59 59 59 59 59 60 60 60 59 59 60 60 61 62 63 63 63 64 65 66 67 67 65 66 67 68 69 71 73 75 77 78 80 81 82 83 85 86 87
22 22 22 21 20 19 20 21 22 23 23 22 22 21 21 21 21 22 23 23 25 27 28 30 32 33 35 37 39 42 44 46 47 50 52 53 55 57 58 59 59 59 58 57 57 56 56 56 56 56 56 56 56 56 56 57 57 56 57 58 59 60 61 62 63 63 64 65 66 68 67 65 66 68 68 70 72 74 76 78 80 81 82 84 85 86 88 89
21 21 20 19 18 18 19 21 21 21 21 20 20 20 20 20 21 23 24 26 27 29 31 32 35 36 38 41 43 45 48 50 51 53 54 56 57 57 57 56 55 54 54 54 54 53 53 53 53 52 52 53 53 54 54 55 56 57 57 58 59 60 61 63 63 64 64 65 67 70 69 66 66 69 70 72 74 76 78 80 81 83 84 86 87 88 89 90
20 19 17 16 17 18 19 20 20 20 19 19 19 20 21 22 24 25 27 29 31 32 34 35 37 40 43 45 47 48 50 52 53 55 55 55 55 53 53 52 52 51 51 51 50 50 50 50 50 50 51 51 52 52 53 54 55 57 58 59 60 61 62 63 65 66 66 67 68 71 71 69 68 70 72 74 76 77 79 80 81 83 84 86 88 89 90 92
17 16 15 16 17 18 19 19 19 19 18 19 20 21 23 25 27 29 30 32 34 35 37 39 42 44 46 48 50 51 52 53 54 54 53 51 50 49 49 49 49 49 48 48 48 48 48 48 48 49 49 50 51 51 52 53 55 56 57 59 60 61 62 64 65 67 67 68 70 71 71 70 69 70 73 75 76 77 78 80 81 83 85 86 88 90 91 92
14 14 15 16 17 18 18 18 18 18 19 20 22 24 26 28 30 31 33 35 36 38 41 44 46 48 49 50 51 52 52 52 51 50 49 48 47 47 46 46 46 46 46 46 46 46 47 47 48 49 50 50 50 51 52 53 54 55 57 59 60 61 63 64 65 67 68 69 71 72 72 71 70 72 74 76 78 79 80 81 83 84 86 87 89 91 93 94
13 14 15 16 17 17 18 19 19 19 21 23 25 26 28 31 32 34 35 37 40 42 44 47 49 50 51 52 53 53 52 49 47 46 46 46 45 44 44 44 44 44 45 45 45 46 46 47 48 49 50 51 51 51 52 53 54 55 56 58 60 60 61 63 65 67 68 70 71 73 74 74 73 74 77 79 80 81 82 83 85 86 88 90 92 93 94 95
13 14 15 16 17 18 19 19 20 21 23 25 27 29 31 33 35 36 38 40 44 46 47 49 50 50 51 52 52 51 49 47 46 45 43 42 42 41 41 41 41 42 42 43 43 44 45 46 47 48 50 51 52 52 53 54 54 55 56 57 59 60 61 63 65 67 70 72 73 74 76 77 77 77 79 80 82 82 83 84 86 88 89 91 92 93 94 95
14 15 16 16 17 19 19 20 22 24 25 27 30 32 34 35 37 39 42 44 47 49 49 50 50 51 51 51 49 47 46 45 44 42 41 40 40 40 40 41 41 43 44 44 45 46 46 47 48 49 51 53 54 54 54 55 55 55 55 56 59 62 64 66 68 71 73 75 77 77 78 79 79 79 79 80 80 82 83 85 86 88 89 90 90 91 91 92
14 15 16 17 19 20 20 22 24 26 28 30 33 35 36 38 40 43 45 47 48 50 50 50 51 51 50 48 46 44 43 42 41 40 40 40 41 41 41 42 43 44 47 48 48 48 48 49 49 50 51 54 55 56 56 56 56 56 58 60 63 65 68 70 72 74 76 78 79 78 78 79 78 77 77 77 79 81 83 85 85 86 86 86 86 87 87 88
15 16 17 18 19 20 22 24 26 28 31 33 35 36 38 41 44 46 48 48 49 49 50 51 51 49 46 44 43 42 40 39 39 38 38 39 39 40 41 41 42 43 45 47 48 48 49 49 50 51 53 55 56 56 57 58 59 60 61 63 65 68 69 71 72 73 74 76 77 76 75 75 75 75 76 78 80 81 82 83 83 82 82 82 82 83 83 84
16 17 18 19 20 22 24 26 28 31 33 35 37 39 41 44 46 48 49 49 49 50 50 50 48 46 44 42 41 39 38 38 38 38 38 38 39 40 41 42 43 44 45 46 47 47 48 50 51 53 55 56 57 57 58 60 61 62 64 65 67 69 70 71 71 71 71 71 71 71 70 70 72 74 76 78 79 79 79 79 78 78 78 78 78 79 79 80
17 18 19 20 22 23 25 28 31 33 35 37 39 42 45 47 48 49 49 49 50 50 49 47 44 42 41 40 38 38 37 37 38 38 38 38 39 41 42 43 44 45 46 47 48 48 49 51 53 54 55 56 58 59 61 63 64 66 68 69 71 71 72 72 71 69 67 66 66 66 67 69 71 73 75 76 76 75 74 74 73 73 73 73 73 74 74 75
18 19 20 21 23 25 28 31 33 35 37 39 42 45 47 48 49 49 49 49 50 49 46 43 41 39 38 37 36 36 36 36 37 37 38 39 39 41 42 43 44 45 46 47 49 51 52 54 56 57 58 59 60 62 64 66 67 69 70 72 72 72 71 69 67 65 63 63 64 65 67 69 71 73 73 72 71 70 69 68 68 67 67 67 67 68 69 69
18 19 20 22 25 27 30 33 35 36 39 42 45 47 48 49 49 48 49 49 48 45 42 40 39 38 37 36 36 35 35 36 36 37 39 39 40 41 42 43 43 44 45 47 50 53 54 56 58 60 61 62 64 65 67 68 69 70 71 71 70 69 67 63 61 60 60 61 64 66 67 69 70 70 70 68 67 66 65 64 63 62 62 62 62 63 64 64
19 20 22 24 27 30 33 35 36 38 42 44 46 48 49 48 48 48 48 47 44 42 40 38 37 36 35 35 36 36 36 36 37 38 39 41 41 42 43 44 44 45 46 48 52 55 57 58 59 61 63 64 66 67 68 70 70 70 69 68 66 64 62 60 57 56 57 59 63 66 67 68 69 68 67 66 64 62 61 60 59 58 58 58 58 58 59 60
20 22 24 27 30 32 34 36 38 41 44 46 47 48 48 47 47 48 47 44 41 39 38 36 35 35 35 35 35 36 37 38 39 40 40 42 42 43 44 44 45 47 49 51 55 57 59 60 62 63 65 66 67 68 69 69 68 68 66 64 62 60 57 56 55 55 56 58 61 64 66 66 66 65 64 63 61 60 59 58 57 56 55 55 55 55 56 56
22 24 27 30 31 33 35 38 41 43 45 47 47 47 46 47 48 46 43 40 39 37 36 34 34 34 34 35 35 36 38 38 39 41 41 42 43 44 45 46 48 50 53 55 57 59 61 63 64 66 67 68 68 67 67 66 65 64 63 61 59 57 56 55 54 55 57 58 60 62 63 64 64 63 62 61 60 59 58 57 56 55 54 53 53 52 53 53
24 27 29 31 32 35 38 40 43 45 46 47 46 46 46 47 46 43 40 39 37 35 34 33 33 34 34 35 36 37 38 39 40 41 42 43 44 46 47 49 51 54 56 58 59 61 63 65 66 68 68 67 66 65 63 62 61 59 58 57 56 55 54 55 55 56 57 59 60 60 61 61 61 61 60 59 57 56 56 55 54 53 52 51 50 50 50 50
26 28 30 32 35 37 40 42 44 45 46 45 45 45 46 45 43 40 38 37 35 33 33 33 33 34 34 36 37 38 39 40 41 42 43 44 46 48 50 52 55 57 59 60 62 64 66 67 68 68 66 65 64 62 61 59 58 56 55 54 53 52 52 53 54 56 57 59 60 60 59 59 59 57 56 56 54 53 52 52 51 50 50 49 49 49 48 49
27 29 32 35 37 39 41 43 44 45 45 44 45 46 45 42 39 38 36 34 33 32 33 33 33 34 35 36 37 39 40 41 42 43 45 46 48 50 53 56 58 60 62 64 65 66 67 67 67 66 65 64 62 61 59 56 54 53 52 51 51 51 52 53 54 56 58 59 61 61 60 59 58 57 55 54 53 52 51 50 49 49 49 49 48 48 48 48
29 31 34 37 38 40 42 44 44 44 44 44 45 45 42 39 37 36 34 32 32 32 33 33 34 35 35 36 38 39 40 42 43 45 46 48 51 54 57 59 61 63 65 66 67 67 66 65 63 62 61 61 60 58 57 55 53 52 51 51 51 51 52 53 55 57 59 59 60 62 62 61 59 58 56 55 54 54 53 51 51 50 50 50 50 50 50 50
31 34 36 38 40 42 43 43 43 43 43 45 44 42 38 37 36 34 32 32 32 33 33 33 34 35 36 37 38 40 41 43 45 47 49 52 55 58 60 62 65 67 68 68 67 66 64 62 60 59 57 56 55 54 53 53 52 52 51 51 51 51 52 53 55 58 60 61 60 61 63 63 62 60 59 57 55 55 55 54 53 53 54 54 54 54 54 54
33 35 37 39 41 42 42 42 42 43 44 44 42 38 37 36 34 32 31 32 32 33 33 33 34 35 36 38 39 41 43 45 47 49 52 55 58 61 63 66 67 68 68 67 65 63 61 59 58 57 55 54 54 53 53 53 53 52 51 51 51 52 53 54 56 58 60 62 62 61 62 63 64 63 62 61 59 57 57 58 57 57 57 58 58 59 60 59
34 36 38 40 41 42 42 42 42 43 44 42 38 37 36 34 32 31 31 32 32 32 32 33 34 36 37 38 40 42 44 47 49 53 56 59 61 64 66 67 67 66 65 64 62 60 58 57 56 55 54 54 54 55 55 55 54 54 53 52 52 52 54 56 58 59 60 61 62 63 63 62 64 65 65 65 64 62 61 61 61 61 61 61 62 63 63 63
35 37 39 40 41 41 41 42 43 44 42 38 36 36 34 32 31 31 31 32 32 32 33 34 36 37 38 39 42 44 46 49 52 56 59 62 64 66 67 66 64 63 61 60 59 58 58 57 56 55 54 54 55 56 56 56 56 56 56 55 54 54 54 56 59 61 61 61 62 63 64 64 64 66 66 66 66 65 64 64 64 65 65 66 66 66 67 67
36 38 40 40 40 41 41 42 43 42 39 36 35 34 32 31 30 30 31 31 31 31 32 34 36 37 39 41 44 46 49 52 56 59 62 65 66 65 64 62 61 60 59 58 58 58 57 56 55 55 55 55 55 56 57 57 58 57 57 57 58 58 57 56 57 60 62 63 63 64 65 65 65 65 66 67 68 68 66 65 67 67 67 68 69 69 70 70
37 39 39 40 40 41 41 43 42 39 36 35 35 33 31 30 30 30 30 30 30 31 32 34 36 37 40 42 45 48 52 55 59 62 64 65 64 63 61 60 59 58 58 57 57 56 56 56 55 55 55 55 56 56 57 58 58 58 59 59 60 62 63 60 58 59 62 64 65 65 65 66 66 66 67 68 68 69 69 67 68 69 69 69 70 71 72 72
38 38 38 39 40 41 42 42 39 36 35 35 33 31 30 29 30 30 29 29 30 31 33 34 36 38 41 44 47 50 54 58 61 63 64 63 62 61 60 59 58 57 57 56 55 55 54 55 55 55 55 56 56 57 58 59 59 59 59 61 61 63 66 67 63 60 63 64 65 66 65 66 67 67 67 68 69 71 71 69 69 70 70 70 71 72 73 73
37 38 38 39 40 41 42 40 36 34 34 33 31 30 29 29 29 29 29 29 30 31 33 34 37 40 42 45 49 53 56 59 62 63 63 63 62 61 60 58 57 56 56 55 55 54 53 53 54 55 56 56 57 57 57 58 60 61 60 60 61 62 65 69 67 63 64 66 66 67 67 67 68 68 68 69 70 71 73 71 70 71 71 71 72 72 73 75
Wind_Direction
206 208 211 212 214 214 211 212 219 225 229 229 226 224 227 229 230 234 239 241 238 236 237 236 232 230 241 245 240 241 245 249 250 251 252 253 254 255 255 253 252 252 252 252 253 253 253 254 254 254 254 254 254 255 255 255 255 256 257 258 259 259 259 258 257 257 258 258 258 257 257 256 256 256 256 256 256 256 257 258 259 259 259 259 259 259 259 260
207 207 210 214 217 218 216 217 221 226 229 232 232 230 229 231 230 231 234 239 241 239 237 239 238 235 239 244 240 240 244 247 250 252 253 253 254 255 255 255 254 254 254 254 255 255 255 256 256 256 256 256 255 255 256 255 255 255 256 257 258 259 260 259 259 259 260 260 260 260 260 259 259 259 259 260 259 259 259 259 260 260 261 261 262 261 261 261
209 207 209 211 214 221 224 225 225 228 232 235 236 235 234 236 236 235 232 235 242 245 244 242 244 243 243 246 244 242 244 248 250 252 254 255 256 257 257 257 256 256 256 257 257 257 258 258 259 260 260 260 259 259 259 259 258 257 257 258 258 259 260 260 260 260 260 261 261 261 261 261 261 261 261 262 262 262 261 261 261 261 261 261 262 262 262 262
211 210 210 211 212 217 226 232 233 232 233 237 239 237 235 236 239 239 238 236 238 244 247 246 248 249 249 251 250 247 248 252 253 254 255 256 258 259 259 259 259 259 259 260 260 260 260 260 261 262 262 262 262 263 263 263 263 262 262 262 262 261 262 262 262 262 262 262 262 262 263 263 263 262 262 263 264 264 263 263 263 262 262 262 262 262 262 262
212 214 213 214 215 216 222 230 238 241 239 238 240 240 238 238 239 240 240 241 240 241 242 241 242 245 247 250 254 256 256 256 257 258 258 258 259 261 261 261 261 261 261 261 262 262 262 262 263 263 264 264 264 264 265 266 266 266 266 266 265 265 265 265 265 264 264 263 264 264 264 265 265 264 264 264 265 265 265 265 264 264 264 263 263 263 263 263
213 216 217 218 219 219 222 227 233 240 245 245 243 242 241 241 242 243 243 244 245 245 244 242 240 242 245 249 254 258 258 258 259 260 261 262 262 262 263 263 263 262 263 263 263 263 264 264 264 264 265 265 265 265 265 265 266 267 267 267 267 267 267 266 266 266 265 265 265 265 265 265 265 266 265 265 265 266 266 266 266 265 265 265 265 264 264 264
216 216 219 221 222 223 224 227 229 234 241 246 248 246 244 243 244 245 246 246 247 248 248 246 244 243 245 249 253 255 256 257 259 261 262 263 264 264 264 264 264 264 264 264 264 264 265 265 265 266 266 266 267 267 266 266 266 267 267 268 268 268 268 267 267 267 267 266 266 265 265 265 265 266 266 265 266 266 266 266 266 266 266 265 265 265 265 265
222 218 219 222 224 225 226 228 230 233 236 240 245 247 248 248 247 247 248 249 249 250 249 249 248 246 247 250 253 256 257 258 260 261 262 263 265 265 266 266 266 265 265 265 265 266 265 266 266 266 267 268 268 269 269 269 268 269 270 271 271 272 272 271 271 270 270 269 269 268 267 267 266 266 267 267 266 266 265 265 265 265 266 266 266 266 266 266
226 223 221 223 226 228 229 230 231 233 235 238 241 244 246 248 249 250 251 252 253 254 254 253 252 251 251 253 256 259 260 261 262 263 264 266 267 268 269 269 269 269 269 269 269 269 269 269 269 269 270 271 271 272 272 272 272 272 272 273 274 274 275 275 275 274 274 273 273 272 271 271 270 270 270 269 268 268 267 267 266 266 266 266 266 266 266 267
229 229 226 225 227 230 232 233 235 235 236 238 240 242 244 245 247 248 250 252 254 255 257 259 258 257 259 258 259 262 263 263 264 265 267 269 271 271 271 271 272 272 272 272 272 272 272 272 272 272 272 272 272 273 273 273 273 273 273 273 273 274 274 275 275 275 275 275 274 274 274 274 274 273 273 272 271 270 270 269 269 269 268 268 268 268 268 268
230 233 232 230 230 232 234 236 239 240 239 240 241 242 243 244 246 246 247 249 250 252 254 258 260 260 264 263 263 265 266 265 266 267 269 270 271 272 272 272 272 272 272 272 273 273 273 274 274 274 274 274 274 274 274 274 274 274 274 274 274 274 274 275 275 275 275 275 275 276 276 276 276 275 275 274 273 273 272 272 272 272 271 271 270 270 270 269
231 234 236 238 237 236 237 240 242 244 244 244 244 244 244 245 246 246 248 248 250 252 253 256 258 258 261 263 263 264 265 265 266 267 268 269 270 271 272 272 272 272 273 273 273 274 274 274 274 274 275 275 275 275 275 275 275 275 275 275 275 275 275 275 274 275 275 275 276 276 277 277 277 276 276 276 275 275 275 274 274 274 273 273 273 272 272 271
232 235 238 241 244 244 244 245 247 248 248 248 248 248 248 248 248 248 249 250 250 253 254 255 257 259 260 260 260 262 263 264 265 266 267 268 269 271 271 272 273 273 273 274 274 274 274 274 274 274 274 274 274 275 275 275 275 275 275 275 275 275 275 275 275 275 275 276 276 277 277 278 278 278 277 277 277 277 276 276 276 275 275 275 274 274 273 273
234 236 240 243 248 251 253 254 254 254 253 252 251 251 251 251 252 252 253 253 254 255 256 257 259 261 262 263 263 263 264 264 265 266 268 269 270 271 272 273 273 274 274 274 275 275 274 274 274 274 274 274 274 275 275 275 275 276 276 276 276 276 277 277 277 277 277 277 277 277 278 278 278 279 278 278 278 277 277 277 276 276 275 275 275 274 274 274
236 239 242 247 251 255 258 261 261 261 259 257 255 254 253 253 254 255 256 256 257 258 258 259 260 261 263 265 265 266 267 268 269 270 270 271 272 272 273 273 274 274 275 275 275 275 275 276 276 276 276 276 276 276 276 276 277 277 277 277 277 277 277 278 278 278 278 278 279 279 279 279 279 279 278 278 278 277 277 277 276 276 275 275 275 275 274 274
239 241 245 250 255 259 263 266 267 266 264 262 260 259 257 257 257 258 258 259 260 260 261 261 262 263 264 265 266 268 269 270 271 272 273 274 274 274 274 274 275 275 275 275 276 276 276 276 277 277 277 277 276 276 276 277 277 277 277 277 277 277 277 278 278 279 279 279 279 279 279 279 279 279 278 278 278 278 277 277 276 276 276 276 276 275 275 275
241 244 248 253 259 264 268 271 271 270 269 267 266 265 265 264 263 263 263 263 263 263 264 264 264 265 266 267 268 269 270 271 272 273 274 275 276 276 276 276 276 276 277 276 276 276 276 276 277 277 277 277 277 276 276 277 277 277 277 277 278 278 278 279 279 279 279 279 279 279 279 279 279 279 279 279 279 279 278 278 277 277 277 277 277 276 276 276
244 247 252 258 264 269 273 273 273 272 272 273 272 272 272 270 270 269 269 268 268 268 268 267 267 268 269 269 270 271 272 272 273 274 275 276 276 277 278 278 278 278 278 278 278 278 278 277 277 277 278 278 278 278 278 278 278 279 279 279 279 280 280 280 280 280 280 280 280 280 280 280 280 280 280 280 280 280 280 280 279 279 279 279 278 278 278 277
246 252 257 263 269 274 275 274 274 275 277 278 278 278 277 276 275 275 274 273 273 272 272 271 271 271 271 272 272 272 273 274 275 276 277 277 278 279 279 280 280 280 279 279 279 279 279 278 278 278 278 278 278 278 279 279 279 280 280 280 280 281 281 281 280 280 280 280 281 281 281 280 280 280 280 281 281 281 280 280 281 281 281 281 281 280 279 279
251 257 263 268 274 276 275 275 277 280 282 283 284 283 282 281 280 279 278 278 277 276 276 276 275 275 275 276 276 277 277 277 278 279 279 280 280 280 281 281 281 281 281 281 280 280 279 279 279 279 279 279 279 279 280 280 280 280 281 281 282 282 282 283 283 283 283 283 283 282 281 281 281 281 281 281 280 280 280 281 281 281 281 281 281 280 280 280
255 262 267 272 276 275 275 278 282 284 286 288 288 287 286 285 283 282 282 281 281 281 280 280 280 281 280 280 281 281 282 282 282 282 282 282 283 282 282 282 282 282 282 282 282 281 281 282 282 282 283 283 283 283 283 283 283 283 283 283 283 283 284 284 284 285 285 286 286 285 284 284 284 284 283 282 282 282 282 282 282 282 281 281 280 280 281 281
260 266 270 273 273 274 277 282 285 288 290 290 290 289 288 288 287 286 286 286 285 285 284 284 284 284 284 284 284 284 285 286 287 288 288 288 289 288 288 287 287 286 286 285 285 286 286 286 286 287 287 288 288 288 287 287 286 286 286 286 286 286 286 286 286 287 287 288 288 287 287 287 288 287 285 285 285 285 284 283 282 282 281 281 281 281 281 281
263 267 270 270 271 275 280 285 288 290 291 290 290 290 290 290 291 291 290 289 288 288 288 287 287 287 288 289 290 290 291 292 293 294 293 294 293 293 292 291 291 290 290 289 289 289 289 289 289 289 289 289 288 288 288 288 288 288 289 289 289 289 290 290 290 290 290 290 289 288 288 289 288 287 287 287 286 285 284 283 283 283 282 282 282 282 282 281
264 267 267 268 272 278 283 287 290 291 290 289 290 290 291 292 293 292 292 292 291 291 291 291 292 292 293 295 297 299 300 300 299 299 297 297 296 295 294 293 292 291 291 291 290 290 290 289 289 289 289 289 288 289 289 290 291 291 291 292 292 292 293 293 293 293 293 292 291 290 289 289 289 289 289 288 286 285 285 285 284 284 284 284 283 283 282 282
265 264 264 269 275 281 285 288 289 288 288 288 290 292 292 293 293 293 293 294 295 295 295 297 298 300 301 303 304 304 303 302 301 300 299 298 297 296 295 294 293 292 292 292 292 291 291 290 290 290 290 290 291 292 293 294 296 296 296 296 296 296 296 296 295 295 294 294 293 292 292 292 292 291 290 288 287 286 286 285 285 285 284 284 283 283 283 282
262 262 266 273 279 284 287 287 286 285 286 289 291 291 292 293 294 296 297 299 300 300 301 303 304 306 307 307 306 305 304 303 301 300 299 298 297 296 296 295 295 294 293 293 292 292 291 292 292 292 293 294 295 296 298 299 299 299 299 299 299 298 298 298 297 296 296 295 294 293 293 294 293 291 290 288 287 287 286 286 285 285 285 284 284 283 283 283
259 263 270 277 282 285 284 282 281 283 286 289 291 292 294 296 299 300 302 303 303 304 306 308 309 309 309 307 306 305 304 303 302 301 300 299 298 297 297 296 295 294 293 293 292 292 292 293 294 295 296 297 298 299 300 300 299 299 300 300 300 299 299 298 298 297 296 295 294 293 294 294 293 292 291 289 289 288 287 287 287 286 286 285 285 285 284 284
259 267 275 280 282 281 279 278 281 284 287 290 293 295 298 300 302 303 304 305 306 308 311 311 311 310 309 307 306 305 304 303 303 302 301 300 299 298 297 296 295 294 294 294 295 296 297 299 300 300 300 299 300 300 300 300 300 301 301 300 300 299 299 298 298 297 297 297 296 296 296 295 295 294 292 291 290 289 289 288 288 288 287 287 286 286 285 284
265 273 277 279 277 275 276 279 283 287 291 294 296 299 301 302 303 304 306 308 310 311 312 312 310 310 309 308 307 307 306 305 304 303 302 301 300 299 298 297 297 297 297 298 299 300 301 302 302 301 301 300 301 301 301 301 301 301 300 300 299 299 299 299 299 299 299 299 298 298 297 297 296 294 293 292 291 290 290 289 289 289 289 288 287 286 285 284
269 274 275 274 272 274 278 281 286 291 294 297 299 301 302 303 305 307 310 312 312 312 312 311 310 309 309 309 309 308 307 306 305 304 302 301 299 299 298 297 297 296 296 296 298 299 300 301 301 302 302 303 303 303 302 302 301 300 300 300 301 301 301 301 301 301 300 299 299 298 298 297 297 296 294 293 293 292 291 291 290 290 289 288 287 286 285 284
268 271 272 271 272 276 281 285 291 295 297 300 301 302 303 305 308 311 312 313 312 312 311 311 311 311 311 310 309 308 307 306 305 303 302 301 299 298 297 298 298 298 299 300 302 303 304 305 306 306 306 305 304 303 302 302 301 301 302 303 303 304 304 303 303 302 302 301 300 300 299 298 297 296 295 294 294 293 293 292 292 291 290 289 288 287 286 285
264 268 270 273 276 280 284 290 294 297 299 301 302 304 306 308 311 312 312 313 312 312 312 312 312 312 311 310 309 308 307 306 305 304 304 304 304 304 305 306 307 307 308 308 309 309 309 309 308 307 306 305 304 304 304 304 304 305 306 306 306 306 305 305 305 304 303 302 301 300 299 298 298 297 297 296 296 296 295 295 294 293 292 291 290 288 287 286
262 267 272 276 280 284 290 295 298 300 301 302 304 306 308 310 312 312 313 313 313 313 313 313 313 312 311 310 309 308 306 305 305 305 305 306 306 306 307 308 308 307 307 307 308 309 309 309 308 307 306 306 306 306 307 307 307 307 306 306 305 304 304 303 303 302 301 300 299 299 299 299 300 300 300 300 300 299 298 297 295 294 293 292 291 290 288 287
263 269 274 279 283 289 294 298 300 302 302 304 306 308 310 311 312 313 314 314 314 314 314 314 313 312 311 310 309 308 307 307 307 307 308 308 308 307 307 308 308 308 307 307 308 308 308 308 307 307 307 307 307 307 307 307 306 305 305 304 304 303 302 301 301 300 300 299 300 300 301 302 302 303 303 303 302 301 299 298 297 296 294 293 292 291 290 289
265 272 277 282 288 293 296 299 301 302 303 305 307 309 311 312 313 314 315 315 315 315 315 314 313 311 310 309 309 308 309 309 309 310 310 309 309 309 309 310 310 310 310 309 309 309 308 308 308 308 309 308 308 308 308 307 306 306 306 305 304 304 304 303 303 303 303 303 302 303 304 305 305 305 305 304 303 302 301 300 298 297 295 294 293 292 291 290
269 276 281 286 291 295 298 301 302 303 304 306 308 310 312 313 315 315 315 315 315 315 314 313 312 310 309 308 308 309 309 310 310 310 310 310 310 309 309 310 310 310 310 310 310 310 311 312 312 312 312 311 310 309 308 308 307 307 306 305 305 305 305 306 306 306 306 306 306 306 307 308 308 308 307 307 306 305 303 302 300 298 297 296 295 294 293 292
273 279 284 289 293 297 299 301 303 304 305 307 309 311 313 315 315 315 316 316 315 314 313 312 311 310 310 310 310 311 311 311 311 310 310 310 310 310 310 311 311 310 310 310 311 312 314 315 315 314 313 312 311 310 309 308 307 306 306 305 306 306 307 307 308 308 309 309 309 309 310 310 311 311 311 310 309 308 306 305 304 302 301 300 298 297 296 295
276 282 288 291 295 298 300 302 303 304 306 308 310 313 314 315 316 316 317 316 315 314 313 312 312 312 312 313 314 314 314 313 313 312 312 312 312 312 312 312 311 311 311 313 315 316 316 316 315 314 313 312 311 310 309 308 307 307 307 308 308 309 309 310 310 310 311 311 311 312 313 313 314 315 314 314 313 312 311 309 308 306 305 303 302 301 300 299
280 286 290 293 296 299 300 301 303 305 307 310 312 314 315 316 317 317 317 315 314 313 312 313 313 314 315 315 316 315 315 315 315 315 314 314 314 314 314 314 314 314 315 317 318 317 317 316 315 314 313 312 311 310 310 310 310 311 311 312 312 312 312 312 312 312 312 312 313 315 316 318 318 318 318 317 316 315 315 314 312 311 310 309 308 307 306 304
285 289 292 295 297 299 300 302 304 306 309 311 313 315 316 317 317 317 316 314 314 313 313 315 316 317 317 317 317 316 316 316 316 316 316 316 316 316 316 317 318 319 320 320 319 319 318 316 315 314 314 313 313 313 313 314 314 315 315 315 316 316 315 314 314 313 314 315 317 319 321 322 322 322 322 321 320 320 319 319 318 317 316 315 314 313 312 310
288 291 293 295 297 298 300 303 305 308 310 313 314 316 317 318 317 316 315 314 314 315 316 318 319 319 319 318 318 318 317 318 318 318 318 318 319 319 320 321 322 322 322 321 320 319 318 317 316 316 316 316 316 316 317 317 318 318 318 318 318 318 316 316 315 315 316 317 319 322 323 325 325 325 325 325 324 324 324 323 322 321 321 320 319 317 316 314
289 291 293 295 297 299 302 304 307 310 312 314 316 317 318 318 317 316 315 315 316 318 320 321 321 321 320 320 319 320 320 320 320 320 320 321 322 323 324 324 324 323 323 322 321 320 319 319 318 318 318 318 318 319 320 321 322 322 321 320 319 317 316 316 316 317 319 320 321 323 325 327 327 328 328 327 326 326 326 325 325 325 324 323 322 321 320 319
287 290 293 295 298 300 303 306 309 312 314 316 318 318 318 317 316 316 316 317 319 321 323 323 323 322 322 322 322 322 322 321 322 322 323 324 326 326 326 326 325 324 323 322 321 321 321 321 321 321 321 321 322 323 325 325 325 324 322 321 319 318 318 318 319 320 322 323 324 325 327 328 329 329 330 329 328 327 327 328 328 327 326 326 325 324 324 324
287 291 294 297 299 302 306 309 312 314 316 318 318 318 318 317 317 317 318 321 323 325 326 325 325 324 324 324 323 323 323 323 324 325 327 328 328 328 327 326 326 325 323 323 323 323 323 323 323 323 324 325 326 327 327 327 327 326 324 323 322 321 321 321 322 323 324 325 327 328 329 330 330 331 331 331 331 330 330 330 330 330 330 330 329 329 329 329
290 293 296 299 302 305 308 311 314 316 317 318 318 318 318 318 318 319 322 325 327 328 328 327 326 326 325 325 325 325 325 326 327 329 330 330 330 329 328 327 326 325 325 324 324 324 324 325 325 326 327 328 328 328 328 328 328 328 327 326 325 324 323 324 325 325 326 328 329 330 330 330 331 331 332 332 333 333 333 332 333 333 334 334 334 335 335 335
293 296 298 301 304 308 311 314 316 317 318 319 319 318 319 319 320 323 327 330 330 330 329 328 328 327 326 327 327 327 327 329 331 332 332 331 331 330 329 328 327 327 326 326 326 326 327 327 329 330 331 331 331 331 331 331 331 331 330 329 328 327 327 327 327 328 329 330 331 331 332 332 332 333 334 334 334 335 336 335 336 336 337 338 338 339 338 338
295 297 300 303 307 310 313 315 317 318 319 319 319 319 320 321 323 328 331 332 332 331 331 330 329 328 329 329 328 329 330 332 333 333 333 333 333 332 330 329 328 327 327 328 328 329 330 332 333 333 334 335 335 335 335 335 334 334 333 332 332 332 331 331 330 331 331 331 331 331 332 333 334 334 335 336 336 337 338 338 338 339 339 340 340 340 340 339
297 299 303 306 309 313 315 317 319 319 320 320 320 320 321 324 328 331 333 334 334 333 332 331 331 332 331 330 330 331 333 335 335 335 335 335 334 332 331 330 330 330 330 331 332 333 334 336 336 337 337 338 338 338 338 338 337 337 336 335 334 334 334 334 333 332 332 332 332 332 333 334 336 336 335 336 336 337 339 340 340 340 341 341 341 341 341 340
299 302 306 309 312 315 317 318 319 320 320 320 321 321 323 327 332 334 335 336 336 335 333 333 333 333 331 331 332 334 336 336 336 337 336 335 334 333 333 333 333 334 334 335 336 337 338 338 339 339 340 340 340 340 340 340 340 339 338 337 336 335 335 335 335 333 332 333 333 334 334 335 336 336 336 336 337 337 339 341 340 340 341 341 341 341 341 340
301 305 308 311 314 317 318 319 320 320 320 321 321 323 326 331 334 335 336 337 336 335 334 334 333 332 331 333 335 337 337 338 338 338 337 337 336 337 337 338 338 338 338 339 340 340 340 341 341 341 341 341 342 342 342 342 341 341 340 339 338 336 334 334 336 335 333 334 334 335 336 336 336 337 337 337 337 337 338 341 341 340 340 340 340 340 339 339
304 307 310 313 316 318 319 320 320 320 321 321 323 325 329 333 335 336 337 337 336 335 335 334 332 332 333 335 338 339 339 339 339 339 339 340 341 342 342 342 342 342 342 342 342 343 343 343 343 343 343 343 343 343 343 342 341 341 341 340 338 337 335 334 336 338 336 336 337 337 337 337 337 338 338 338 338 338 338 340 341 340 340 339 339 338 338 338
306 309 312 316 317 319 320 321 320 321 321 322 324 327 331 335 336 337 337 337 336 336 335 333 332 333 336 338 339 340 340 340 340 341 343 345 347 347 346 346 346 345 345 345 345 346 346 346 346 345 345 345 344 344 344 343 342 341 341 341 339 339 338 335 336 340 341 339 339 339 339 339 338 339 340 340 339 339 337 339 340 339 339 339 338 337 337 338